This is the latest recevied weather packets stored in our database for station/object WA5KWK. If no packets are shown the sender has not sent any weather packets the latest 10 day(s).
| Time | Temp. | Humidity | Pressure | Rain* | Wind** | Luminosity | Snow |
|---|---|---|---|---|---|---|---|
| 1777895104 | 8.33° C | 83% | 1012.6 hPa | 0 mm | - | 0 W/m² | - |
| 1777893905 | 8.33° C | 83% | 1012.8 hPa | 0 mm | - | 0 W/m² | - |
| 1777893605 | 8.33° C | 83% | 1012.8 hPa | 0 mm | - | 0 W/m² | - |
| 1777893005 | 8.33° C | 83% | 1012.5 hPa | 0 mm | - | 0 W/m² | - |
| 1777892104 | 8.33° C | 83% | 1012.5 hPa | 0 mm | - | 0 W/m² | - |
| 1777889104 | 7.78° C | 84% | 1012.4 hPa | 0 mm | - | 0 W/m² | - |
| 1777887004 | 7.78° C | 87% | 1012.5 hPa | 0 mm | - | 0 W/m² | - |
| 1777885804 | 7.78° C | 89% | 1012.7 hPa | 0 mm | - | 0 W/m² | - |
| 1777884605 | 7.78° C | 90% | 1012.8 hPa | 0 mm | - | 0 W/m² | - |
| 1777883405 | 8.33° C | 90% | 1012.7 hPa | 0 mm | - | 0 W/m² | - |
| 1777882805 | 8.33° C | 90% | 1012.8 hPa | 0 mm | - | 0 W/m² | - |
| 1777881604 | 8.89° C | 89% | 1012.9 hPa | 0 mm | - | 0 W/m² | - |
| 1777881004 | 8.89° C | 89% | 1012.7 hPa | 0 mm | - | 0 W/m² | - |
| 1777880404 | 8.89° C | 88% | 1012.8 hPa | 0 mm | - | 0 W/m² | - |
| 1777879503 | 9.44° C | 88% | 1012.7 hPa | 0 mm | - | 0 W/m² | - |
| 1777877104 | 9.44° C | 88% | 1012.6 hPa | 0 mm | - | 0 W/m² | - |
| 1777876504 | 10° C | 88% | 1012.7 hPa | 0 mm | - | 0 W/m² | - |
| 1777875604 | 10° C | 88% | 1012.8 hPa | 0 mm | - | 0 W/m² | - |
| 1777874104 | 10° C | 87% | 1012.9 hPa | 0 mm | - | 0 W/m² | - |
| 1777873505 | 10.56° C | 87% | 1012.9 hPa | 0 mm | - | 0 W/m² | - |
| 1777871404 | 10.56° C | 87% | 1013.1 hPa | 0 mm | - | 0 W/m² | - |
| 1777869604 | 10.56° C | 86% | 1012.6 hPa | 0 mm | - | 0 W/m² | - |
| 1777864504 | 11.67° C | 85% | 1011.7 hPa | 0 mm | - | 0 W/m² | - |
| 1777864204 | 11.67° C | 85% | 1011.6 hPa | 0 mm | - | 0 W/m² | - |
| 1777861503 | 11.67° C | 85% | 1011.6 hPa | 0 mm | - | 9 W/m² | - |
* Rain latest hour (hover to see other rain measurements)
** Current wind speed in m/s (hover to see current wind gust speed)